Regional Weather Roundup
Issued by NWS

Home | Current Version | Previous Version | Graphics & Text | Print | Product List | Glossary On
Versions: 1 2 3 4 5 6 7 8 9 10 11 12 13 14 15 16 17 18 19 20 21 22 23 24 25 26 27
000
ASUS45 KTFX 221610
RWRMT
MONTANA REGIONAL WEATHER ROUNDUP
NATIONAL WEATHER SERVICE GREAT FALLS MT
1000 AM MDT THU JUN 22 2017

NOTE: "FAIR" INDICATES FEW OR NO CLOUDS BELOW 12000 FEET WITH NO
SIGNIFICANT WEATHER AND/OR OBSTRUCTIONS TO VISIBILITY.

MTZ001>007-043-221700-
WEST OF THE DIVIDE

CITY           SKY/WX    TMP DP  RH WIND       PRES   REMARKS
KALISPELL      SUNNY     62  31  31 VRB7      30.13R
MISSOULA       SUNNY     61  37  41 CALM      30.13S
BUTTE          SUNNY     57  25  29 W17       30.15F
MULLAN PASS    SUNNY     46  28  49 N7        30.21R
ANACONDA         N/A     59  27  29 W14G24    30.13F
DEER LODGE       N/A     57  30  35 NE8       30.15F
EUREKA           N/A     61  30  31 MISG      30.15S
HAMILTON         N/A     64  28  25 CALM      30.14S
LIBBY            N/A     63  28  27 N10       30.14S
$$

MTZ008-052>055-221700-
SOUTHWEST MONTANA

CITY           SKY/WX    TMP DP  RH WIND       PRES   REMARKS
BOZEMAN        SUNNY     62  28  27 VRB7      30.11F
DILLON         SUNNY     60  29  30 S12       30.13F
W YELLOWSTONE  SUNNY     57  30  35 CALM      30.17S
ENNIS          SUNNY     59  21  23 W14       30.19S
THREE FORKS      N/A     64  26  23 W8        30.09S
$$

MTZ009-010-012-014-046-048-049-054-221700-
EAST SLOPES AND CENTRAL MONTANA

CITY           SKY/WX    TMP DP  RH WIND       PRES   REMARKS
CUT BANK       SUNNY     59  25  27 NW21G28   30.09R
GREAT FALLS    SUNNY     61  38  42 VRB5      30.07R
HELENA         SUNNY     66  30  26 NW16G24   30.09S
CHOTEAU          N/A     61  34  36 N7        30.10S
CONRAD           N/A     59  39  47 W13       30.10R
$$

MTZ011-013-016-021-045-047-050-051-221700-
NORTH CENTRAL MONTANA

CITY           SKY/WX    TMP DP  RH WIND       PRES   REMARKS
HAVRE          SUNNY     64  33  31 NW22      30.01S
LEWISTOWN      MOSUNNY   59  35  40 NW8       30.04S
N BAR RANCH      N/A     63  32  31 NW16G24   30.05F
CHINOOK          N/A     63  34  34 W18G28    29.98F
FORT BENTON      N/A     63  30  29 MISG      30.06S
STANFORD         N/A     60  37  41 NW12      30.04S
$$

MTZ017>020-022>027-061-062-221700-
NORTHEAST MONTANA

CITY           SKY/WX    TMP DP  RH WIND       PRES   REMARKS
GLASGOW        SUNNY     63  37  38 W16G25    29.92F
JORDAN           N/A     65  33  30 W12       29.96F
SIDNEY         SUNNY     65  38  36 NW17      29.90S
WOLF POINT     SUNNY     66  38  35 W16G22    29.90F
MALTA          SUNNY     64  37  36 NW16G29   29.95S
PLENTYWOOD       N/A     61  37  41 W29G38    29.82F
POPLAR           N/A     63  39  42 W15       29.89F
$$

MTZ028>42-056>058-221700-
SOUTHCENTRAL AND SOUTHEAST MONTANA

CITY           SKY/WX    TMP DP  RH WIND       PRES   REMARKS
BAKER          SUNNY     66  39  37 NW16G23   29.95S
BILLINGS       MOSUNNY   65  39  38 SW9       30.02F
LIVINGSTON     SUNNY     64  28  25 W18G28    30.08S
MILES CITY     SUNNY     68  34  28 N10       29.96F
BIG TIMBER     SUNNY     63  28  27 W23G35    30.07F
FORSYTH          N/A     64  43  45 W6        29.97F
ROUNDUP          N/A     65  34  31 S5        29.92F
$$

REGIONAL REPORTS...DAKOTAS

CITY           SKY/WX    TMP DP  RH WIND       PRES   REMARKS
WILLISTON      SUNNY     67  38  34 NW21G29   29.86F
MINOT          SUNNY     69  38  32 W25G31    29.78S
DICKINSON      SUNNY     66  40  38 NW21G29   29.88R
BEACH            N/A     64  34  32 N18       29.96S
CROSBY           N/A     63  36  36 W28G40    29.80S
TIOGA            N/A     61  37  41 W30G38    29.83F
WATFORD CITY     N/A     63  37  39 NW18G26   29.87S
BISMARCK       PTSUNNY   70  45  40 NW16G26   29.83S
GRAND FORKS    CLOUDY    70  52  52 SW15      29.69F
FARGO          MOSUNNY   75  47  36 NW13      29.72F
BUFFALO SD       N/A     69  41  36 NW15G24   29.88S
RAPID CITY     CLOUDY    63  45  51 NW23      29.96R
$$

REGIONAL REPORTS...WYOMING/IDAHO/WASHINGTON

CITY           SKY/WX    TMP DP  RH WIND       PRES   REMARKS
GILLETTE       SUNNY     64  39  39 N13       30.02F
SHERIDAN       SUNNY     67  41  38 N6        30.02F
BUFFALO WY     SUNNY     62  35  36 NE13      30.07F
CODY           SUNNY     62  34  35 N9        30.08F
YELLOWSTONE LA   N/A     52  32  46 CALM      30.22R
IDAHO FALLS    SUNNY     66  37  34 N8        30.13S
SALMON         SUNNY     61  36  39 N3        30.14F
BOISE          SUNNY     67  39  35 W9        30.13S
SPOKANE        SUNNY     66  28  24 N20       30.20R
$$

REGIONAL REPORTS...ALBERTA

CITY           SKY/WX    TMP DP  RH WIND       PRES   REMARKS
EDMONTON       CLOUDY    48  43  81 NW15G28   30.09R
CALGARY        CLOUDY    48  37  66 NW22G31   30.14R
LETHBRIDGE     PTSUNNY   55  37  50 N17G28    30.12R
MEDICINE HAT   LGT RAIN  46  45  93 W26G38    30.04R
WATERTON GATE    N/A     57  25  28 NW7         N/A
MILK RIVER       N/A     55  37  50 N21G26      N/A
$$

REGIONAL REPORTS...SASKATCHEWAN

CITY           SKY/WX    TMP DP  RH WIND       PRES   REMARKS
SWIFT CURRENT  LGT RAIN  48  43  81 W25G36    29.83S
REGINA         LGT RAIN  54  41  62 W28G43    29.72S
SASKATOON      CLOUDY    54  50  87 NW17      29.69R
CYPRESS HILLS    N/A     43  34  70 NW18G29     N/A
VAL MARIE        N/A     59  37  44 NW24G32     N/A
ROCKGLEN         N/A     57  36  44 W24G38      N/A
ASSINIBOIA       N/A     52  43  71 N25G32      N/A
$$




USA.gov is the U.S. government's official web portal to all federal, state and local government web resources and services.